Regional Weather Roundup
Issued by NWS

Home | Current Version | Previous Version | Graphics & Text | Print | Product List | Glossary On
Versions: 1 2 3 4 5 6 7 8 9 10 11 12 13 14 15 16 17 18 19 20 21 22 23 24 25 26 27 28 29 30 31 32 33 34 35 36 37 38 39 40 41 42 43 44 45 46 47 48 49 50
000
ASUS43 KFSD 031202
RWRSD

WEATHER ROUNDUP FOR SOUTH DAKOTA
NATIONAL WEATHER SERVICE SIOUX FALLS SD
700 AM CDT MON AUG 03 2015

NOTE: "FAIR" INDICATES FEW OR NO CLOUDS BELOW 12,000 FEET WITH NO
SIGNIFICANT WEATHER AND/OR OBSTRUCTIONS TO VISIBILITY.


SDZ001>005-009-010-012>017-031300-
NORTHWEST AND NORTH CENTRAL SOUTH DAKOTA

CITY           SKY/WX    TMP DP  RH WIND       PRES   REMARKS
BUFFALO          N/A     56  48  74 NE7       29.99S
FAITH            N/A     54  47  77 CALM      30.03R
MOBRIDGE       CLEAR     56  56 100 CALM      29.99R
$$

SDZ012>016-024>037-041>051-057-063-072>074-031300-
SOUTHWEST AND SOUTH CENTRAL SOUTH DAKOTA

CITY           SKY/WX    TMP DP  RH WIND       PRES   REMARKS
RAPID CTY ARPT CLEAR     58  52  80 NE7       30.03R
PIERRE         CLEAR     58  53  84 CALM      29.98S
CUSTER         PTCLDY    54  48  80 NE6       30.14R
PHILIP         CLEAR     58  54  86 CALM      30.00R
PINE RIDGE     PTCLDY    66  56  70 E8        30.01S
WINNER         FAIR      61  56  83 E3        29.99R
$$

SDZ004>011-016>023-039-040-031300-
NORTHEAST SOUTH DAKOTA

CITY           SKY/WX    TMP DP  RH WIND       PRES   REMARKS
ABERDEEN       CLEAR     52  49  89 CALM      29.98R
WATERTOWN      CLEAR     53  51  93 N3        29.97R
BROOKINGS      CLEAR     54  50  87 CALM      29.99S VSB 1
SISSETON         N/A     53  48  83 N5        29.94R
$$

SDZ017-020-022-023-036>040-048>070-031300-
SOUTHEAST SOUTH DAKOTA

CITY           SKY/WX    TMP DP  RH WIND       PRES   REMARKS
SIOUX FALLS    PTCLDY    58  56  93 CALM      29.98R
HURON          CLEAR     56  54  93 W5        29.97R
MITCHELL       CLEAR     58  57  97 SW5       29.99R
YANKTON        CLEAR     59  55  88 CALM      29.98R
$$

ABBREVIATIONS USED IN REMARKS
   TC - TEMPERATURE IN CELSIUS
  WCI - WIND CHILL INDEX
   HX - HEAT INDEX
  VSB - VISIBILITY




USA.gov is the U.S. government's official web portal to all federal, state and local government web resources and services.